Flag for Iran Weather past 2 weeks in Mashhad, Iran

Now
36 °F

Clear.


Feels Like: 32 °F
Forecast: 25 / 49 °F
Wind: 5 mph from Southwest

Location: Mashhad Airport

Current Time: Dec 23, 2014 at 3:05:06 AM

Latest Report: Dec 23, 2014 at 2:30 AM


Visibility: 4 mi

Pressure: 29.98 "Hg

Humidity: 93%

Dew point: 34 °F

Location of MashhadLocation

Historic Weather in Mashhad — Graph

°F

Mashhad temperature yesterday

Maximum temperature yesterday: 43 °F (at 7:00 PM)
Minimum temperature yesterday: 36 °F (at 2:30 AM)
Average temperature yesterday: 39 °F

Past Weeks' High & Low Weather Summary

 TemperatureHumidityPressure
High57 °F (Dec 10, 1:30 PM)100% (Dec 8, 9:30 PM)30.63 "Hg (Dec 8, 9:30 PM)
Low25 °F (Dec 8, 5:30 AM)12% (Dec 15, 2:00 PM)29.95 "Hg (Dec 21, 3:00 PM)
Average40 °F68%30.24 "Hg
* Reported Dec 8 1:30 AM — Dec 23 2:00 AM, Mashhad, Weather by CustomWeather, © 2014

Note: Actual official high and low records may vary slightly from our data, if they occured in-between our weather recording intervals... More about our weather records

Advertising

Mashhad weather history for previous 24 hours

 ConditionsComfort  
Time TempWeatherWind HumidityBarometerVisibility
2:00 AM
Dec 23
36 °FFog.5 mph100%30.01 "Hg3 mi
1:30 AM34 °FFog.5 mph100%30.01 "Hg2 mi
1:00 AM36 °FFog.No wind100%30.01 "Hg2 mi
12:30 AM34 °FFog.5 mph100%30.01 "Hg2 mi
12:00 AM36 °FFog.No wind100%29.98 "Hg2 mi
11:30 PM
Dec 22
36 °FFog.No wind100%30.01 "Hg2 mi
11:00 PM37 °FFog.No wind93%30.01 "Hg2 mi
10:30 PM39 °FFog.5 mph87%30.01 "Hg3 mi
10:00 PM39 °FPassing clouds.5 mph87%30.01 "Hg4 mi
9:30 PM39 °FPassing clouds.7 mph87%29.98 "Hg4 mi
8:52 PM39 °FPassing clouds.5 mph87%29.98 "Hg4 mi
8:30 PM41 °FPassing clouds.7 mph81%30.01 "Hg4 mi
8:00 PM41 °FPassing clouds.5 mph81%29.98 "Hg4 mi
7:30 PM43 °FOvercast.No wind76%30.01 "Hg4 mi
7:00 PM43 °FFog.5 mph81%30.01 "Hg3 mi
6:30 PM41 °FFog.7 mph87%30.01 "Hg2 mi
6:00 PM41 °FFog.No wind100%29.98 "Hg2 mi
5:30 PM41 °FFog.5 mph100%29.98 "Hg2 mi
5:00 PM41 °FOvercast.5 mph100%29.98 "Hg4 mi
4:30 PM41 °FOvercast.5 mph93%29.98 "Hg4 mi
4:00 PM41 °FOvercast.No wind100%29.98 "Hg4 mi
3:30 PM41 °FOvercast.5 mph100%29.98 "HgN/A
3:00 PM41 °FOvercast.5 mph100%29.98 "HgN/A
2:30 PM41 °FOvercast.7 mph100%29.98 "HgN/A
1:58 PM41 °FOvercast.7 mph93%29.98 "HgN/A
1:20 PM41 °FOvercast.7 mph100%29.98 "HgN/A
1:00 PM41 °FOvercast.7 mph100%29.98 "HgN/A
12:30 PM41 °FOvercast.7 mph93%29.98 "HgN/A
12:00 PM41 °FOvercast.7 mph93%30.01 "HgN/A
11:30 AM41 °FLow clouds.7 mph93%30.01 "HgN/A
11:00 AM39 °FOvercast.7 mph100%30.04 "HgN/A
10:30 AM39 °FChilly.7 mph100%N/A5 mi
10:00 AM37 °FLow clouds.7 mph100%30.04 "Hg5 mi
9:30 AM37 °FLow clouds.7 mph100%30.04 "Hg4 mi
8:30 AM36 °FFog.5 mph100%30.04 "Hg2 mi
8:00 AM37 °FFog.9 mph100%30.04 "Hg2 mi
7:00 AM36 °FDrizzle. Fog.5 mph100%30.01 "Hg2 mi
6:00 AM36 °FDrizzle. Fog.7 mph100%30.01 "Hg2 mi
5:30 AM36 °FDrizzle. Fog.7 mph100%30.01 "Hg2 mi
5:00 AM36 °FDrizzle. Fog.5 mph100%30.01 "Hg2 mi
4:30 AM36 °FLight rain. Fog.5 mph100%30.01 "Hg2 mi
4:00 AM36 °FLight rain. Fog.5 mph100%30.01 "Hg2 mi
3:30 AM36 °FLight rain. Fog.5 mph100%30.01 "Hg3 mi
3:00 AM36 °FLight rain. Fog.5 mph100%30.01 "Hg2 mi
Weather by CustomWeather, © 2014

See weather overviewHow to use our weather pages